Wetbulb
63.01 61.12 56.02 55.24 47.58 46.17 42.09 44.41 46.84 48.72 48.32 51.18 52.78 53.26 52.79 54.62 53.73 47.43 62.48 66.53 68.52 68.79 70.11 70.00 70.68 70.35 69.56 69.71 69.73 69.34 68.83 68.75 67.88 67.00 69.53 68.34 67.68 68.69 67.57 66.84 66.57 66.96 66.48 66.02 65.96 65.48 65.47 66.21 66.11
60.76 60.42 55.09 50.93 44.51 40.80 41.51 47.63 49.00 50.51 52.45 53.16 55.00 54.01 54.03 53.55 59.53 60.82 62.56 67.46 68.71 69.41 69.85 69.36 69.74 70.20 69.25 69.57 69.46 69.31 69.27 68.58 67.97 67.10 67.91 68.70 68.45 68.88 67.88 66.67 66.18 66.51 65.94 65.75 65.65 65.58 64.97 65.57 65.62
59.27 57.50 51.23 47.26 43.02 40.70 41.95 48.62 50.08 52.17 53.61 53.60 52.45 55.88 55.68 56.21 59.64 61.49 64.45 67.45 68.62 68.80 69.43 68.85 69.51 70.08 69.24 69.41 69.17 69.13 69.13 68.65 67.22 67.02 67.07 68.73 68.77 69.13 67.45 66.46 66.02 65.95 65.58 65.45 65.25 64.90 65.10 64.78 64.73
55.19 53.45 50.97 45.05 42.18 44.76 46.09 50.63 51.82 51.97 52.96 55.23 54.40 53.31 56.80 60.87 61.27 63.07 66.59 67.52 67.36 67.89 68.73 68.63 69.77 69.98 69.09 69.06 68.81 68.33 68.50 68.57 67.55 67.55 66.79 68.54 68.25 68.08 67.21 66.45 66.18 66.24 65.38 65.23 65.10 64.58 64.10 63.98 64.02
53.32 50.07 44.16 42.51 43.60 44.52 46.34 52.08 52.08 51.13 50.64 52.08 53.35 52.66 55.80 61.58 63.57 64.34 64.99 66.44 66.49 67.21 68.32 68.51 69.29 69.62 69.45 68.89 68.41 68.26 68.14 68.22 68.25 67.81 66.50 67.12 68.25 67.69 67.40 66.39 65.99 65.07 65.10 64.66 64.59 64.31 63.57 63.30 63.55
49.51 48.63 41.91 40.00 43.57 45.91 47.04 52.62 52.73 51.09 51.71 52.39 51.74 54.35 55.56 62.01 63.09 63.45 65.88 66.36 67.28 67.25 68.35 68.36 66.94 67.91 68.68 68.63 68.35 68.59 68.43 68.33 67.88 66.96 67.06 67.04 66.60 67.77 66.72 66.08 65.72 65.26 65.42 64.57 64.33 63.88 63.02 62.70 62.91
47.12 45.41 42.01 41.63 42.85 45.46 48.34 51.67 49.82 50.66 51.41 51.40 54.01 53.17 54.74 60.42 63.32 63.67 64.96 66.41 66.90 67.56 67.72 67.59 67.36 66.80 66.06 67.12 67.20 67.90 68.26 67.97 67.69 67.08 66.54 66.04 65.33 66.98 66.28 64.65 66.96 65.96 65.26 64.60 63.98 63.57 62.88 62.09 62.05
47.96 46.01 42.31 41.91 42.05 44.73 49.06 50.16 50.98 51.09 50.77 54.73 54.68 51.55 52.62 59.53 63.26 63.70 63.80 65.35 66.89 66.96 66.76 66.72 66.69 66.58 66.24 65.86 64.33 65.23 66.36 66.55 66.55 65.63 64.71 63.44 63.61 63.79 64.23 62.84 65.50 66.30 65.69 64.86 64.23 63.62 62.99 61.79 60.95
49.58 42.43 40.38 42.69 44.25 45.92 50.19 48.43 51.16 52.66 52.98 52.80 54.72 54.44 56.66 62.38 62.79 62.03 61.61 62.77 64.91 65.71 65.48 66.08 66.16 66.05 65.64 65.10 63.61 62.92 63.72 64.22 63.96 62.78 61.84 60.56 59.52 59.98 60.00 60.68 62.99 65.63 65.21 64.57 64.09 63.84 63.53 62.87 61.43
46.04 40.98 43.22 46.58 45.19 44.66 47.46 47.40 49.63 48.81 49.38 51.14 53.88 59.10 60.69 61.98 60.99 60.34 59.74 59.99 60.76 63.89 64.47 65.24 65.42 65.41 65.41 65.96 63.73 63.21 63.34 62.49 61.35 60.53 59.31 59.06 58.49 58.37 59.50 58.65 60.75 63.89 63.94 64.56 63.85 63.64 63.52 60.93 57.39
45.95 42.64 46.39 47.66 47.66 47.94 47.74 47.71 47.93 47.68 45.79 50.26 52.35 57.60 59.61 59.40 59.27 59.78 59.58 59.80 60.90 61.80 63.59 64.52 64.98 65.08 64.98 65.01 63.58 63.00 62.08 61.17 60.13 59.28 58.55 58.57 58.71 57.49 58.01 58.22 58.82 59.77 59.42 59.76 61.39 60.35 59.03 58.61 57.72
45.03 48.45 48.35 50.04 48.78 48.19 46.50 48.23 47.92 46.33 48.07 50.58 52.07 59.78 59.71 59.49 59.48 59.79 59.92 59.37 60.15 59.88 61.10 62.67 64.60 64.36 64.83 64.96 63.83 62.97 62.07 60.84 60.04 59.11 58.62 57.99 57.73 56.83 57.05 57.59 58.14 57.91 58.28 57.19 57.18 57.02 57.07 56.84 57.10
45.91 47.64 49.87 50.31 48.59 47.84 48.88 47.36 46.83 47.67 50.36 50.32 54.32 59.94 59.59 59.67 59.96 60.22 60.34 59.95 59.78 60.04 60.39 60.48 62.15 62.83 64.34 64.00 64.01 63.10 62.21 61.30 60.48 59.60 59.29 58.71 57.89 57.50 57.82 58.12 57.73 57.43 57.36 56.58 56.05 56.61 56.87 56.63 57.12
47.87 48.88 49.09 49.41 49.37 48.55 47.42 46.93 47.20 48.00 48.55 48.31 54.85 57.39 58.57 59.31 59.43 59.29 59.28 60.04 59.81 60.54 60.76 60.27 60.16 61.99 63.56 63.83 63.31 63.05 62.60 61.92 61.08 60.02 59.82 59.15 58.62 58.28 57.92 57.85 57.24 56.84 56.73 56.54 55.92 56.46 56.79 56.86 57.27
49.15 45.10 46.71 47.11 48.09 47.56 48.04 45.16 44.53 48.88 48.66 48.39 48.05 52.36 56.32 58.84 59.11 59.20 60.66 60.63 61.20 61.28 61.60 60.85 60.48 60.83 62.82 63.35 62.85 62.83 62.81 62.60 61.57 60.93 60.20 60.02 59.25 59.06 58.89 57.60 57.04 56.84 56.45 56.76 56.07 56.03 56.28 56.12 56.98
44.45 44.65 39.63 45.80 47.90 48.83 47.13 41.80 46.66 49.88 47.49 47.93 48.38 46.60 49.51 55.09 58.87 60.03 60.36 61.15 61.53 61.68 61.71 62.22 62.36 61.05 62.15 62.86 62.85 62.94 62.75 62.53 62.10 61.20 60.50 60.23 60.02 59.34 58.17 57.61 56.98 57.15 56.58 56.39 55.35 55.28 55.41 55.33 55.55
44.64 40.67 39.57 42.23 47.36 46.23 44.86 41.41 46.66 49.61 48.84 47.24 46.95 47.59 46.91 50.07 51.65 58.11 60.46 60.96 61.37 61.88 61.92 62.31 62.09 61.29 60.66 62.48 62.87 62.68 62.28 62.19 62.04 61.79 60.97 60.39 60.37 59.67 58.69 57.88 57.67 56.91 56.56 55.36 55.46 55.34 55.43 54.74 55.18
40.38 38.38 41.03 39.60 43.30 43.84 42.24 41.90 44.81 47.23 47.05 46.11 46.31 47.13 47.05 46.86 49.49 52.61 58.20 60.97 61.66 61.98 62.27 62.18 62.78 62.14 61.15 61.11 62.16 62.37 61.97 62.25 62.37 61.86 61.60 60.40 60.16 59.68 58.39 57.60 57.09 57.11 56.45 55.49 54.85 54.92 55.18 55.20 55.20
40.60 39.24 38.68 38.48 44.19 42.53 41.16 41.77 43.79 45.94 45.63 45.04 46.30 46.21 46.95 48.83 51.85 52.02 53.51 58.69 60.53 61.02 61.47 61.77 61.89 62.41 61.59 60.88 59.88 60.31 60.46 61.49 61.72 62.12 61.89 60.88 59.97 59.34 58.91 58.51 57.06 56.39 56.14 56.01 55.56 55.54 55.15 55.31 55.01
41.36 39.38 40.69 41.90 43.98 42.68 41.51 41.58 44.35 45.96 46.26 47.50 47.10 47.19 47.09 47.27 49.23 51.18 51.74 53.56 58.32 60.04 60.78 61.36 61.53 61.95 61.71 62.09 61.93 61.94 61.60 61.74 62.17 62.34 62.05 61.40 60.57 59.40 59.02 58.61 57.53 56.95 56.15 55.08 55.30 55.71 54.81 55.66 55.24
41.92 39.63 39.19 40.02 41.96 43.67 41.74 39.89 41.92 45.99 46.47 47.61 48.89 48.88 49.67 50.07 50.36 51.33 50.66 50.87 55.58 58.54 59.72 60.77 61.26 61.58 62.03 62.65 62.27 61.43 60.31 59.26 59.56 60.87 61.45 61.35 61.48 60.50 59.39 59.07 58.52 57.68 57.22 56.55 55.89 55.69 55.40 54.44 53.73
38.41 42.42 41.73 40.28 39.25 34.41 41.35 31.49 37.93 40.19 43.12 44.71 47.09 48.80 49.68 50.86 51.32 52.28 52.63 49.38 50.14 55.69 59.26 60.28 60.87 61.26 61.94 62.46 61.87 61.03 60.51 59.67 60.91 61.41 61.98 61.67 61.43 60.89 60.17 59.69 58.87 58.45 58.05 57.46 56.78 56.38 56.15 55.77 54.22
39.53 42.06 40.43 40.16 39.13 37.81 37.75 34.14 35.45 37.56 37.42 41.13 44.45 45.42 46.75 48.42 49.67 50.39 49.47 49.40 48.89 50.64 54.51 57.90 59.85 60.21 61.33 62.05 62.22 61.17 60.54 61.30 61.71 61.50 61.11 61.21 60.75 60.84 60.15 59.65 59.13 58.68 58.54 58.20 57.78 56.84 56.07 56.70 56.05
42.94 40.57 39.72 39.14 38.87 31.65 35.60 34.69 32.71 34.92 38.61 39.72 42.79 42.44 43.77 43.52 44.70 45.45 46.66 47.46 47.47 48.20 49.71 53.53 56.15 57.66 59.17 60.75 61.55 61.30 60.67 60.69 60.48 60.50 60.37 60.84 60.77 60.63 60.22 59.35 59.41 59.15 58.97 58.49 58.25 57.94 57.29 56.55 56.46
42.39 37.20 31.29 29.96 30.17 28.52 34.47 33.08 35.60 37.57 40.83 41.25 41.69 41.89 41.81 42.41 42.69 43.32 44.21 44.63 45.63 45.91 46.51 48.64 52.27 54.64 56.85 58.31 60.33 61.40 61.24 61.10 60.57 60.47 60.32 60.17 60.11 60.18 60.49 60.03 59.04 59.21 59.04 59.07 58.84 58.18 57.71 57.22 56.63
40.32 38.40 32.05 25.07 25.93 28.42 31.62 29.62 34.21 41.60 43.29 43.93 43.86 43.16 42.44 42.84 43.06 43.64 44.17 44.34 44.68 45.39 45.64 45.99 46.84 48.14 49.91 54.11 56.85 58.94 60.83 61.49 61.41 61.52 61.31 60.50 60.44 60.68 61.06 60.58 60.57 59.86 59.63 58.97 58.87 58.42 58.11 57.99 57.45
39.43 36.66 40.43 30.13 22.01 24.42 29.20 32.84 37.76 40.16 39.13 40.15 40.31 41.10 41.04 42.63 43.62 43.76 44.08 44.03 43.96 44.85 45.32 45.04 45.90 46.41 47.10 47.80 50.31 54.31 57.97 59.79 60.93 61.42 61.77 61.46 61.09 61.00 60.83 60.72 60.37 60.50 60.19 59.65 58.86 58.76 58.57 58.58 58.40
42.01 42.73 34.10 33.74 26.12 23.13 26.98 27.82 32.06 35.18 37.28 39.21 38.49 39.49 40.91 41.57 43.16 43.57 43.46 43.67 43.75 43.91 44.41 45.33 45.37 45.44 46.00 46.52 47.11 49.13 52.24 56.24 59.06 60.45 60.87 61.22 61.43 61.15 60.66 60.26 60.41 60.46 60.41 60.12 59.75 59.29 59.34 58.90 58.77
39.67 37.08 38.38 37.12 30.00 25.09 21.35 25.46 34.21 37.70 38.24 38.29 38.78 40.13 40.73 41.70 42.79 43.26 43.38 43.03 41.34 42.22 42.98 43.46 44.72 44.62 45.87 46.45 46.49 46.92 48.07 50.52 53.84 56.96 59.05 60.45 61.22 61.30 60.50 60.47 60.27 60.50 60.41 60.56 59.95 59.62 59.59 58.88 58.59
38.35 37.83 35.92 32.15 30.24 29.15 27.35 27.76 38.29 38.58 38.47 38.89 38.72 40.09 40.35 42.00 44.20 44.07 41.42 40.02 40.81 41.80 42.13 42.20 43.70 44.95 45.48 46.14 46.01 46.40 47.56 48.88 50.12 52.03 54.71 57.77 59.45 60.88 60.83 60.28 60.32 60.48 60.40 60.49 59.96 59.17 59.12 58.81 58.24
MSLP
1013.85 1013.08 1013.05 1013.44 1015.14 1016.05 1016.35 1016.39 1015.94 1015.86 1015.76 1015.70 1015.78 1016.20 1017.10 1017.70 1018.10 1018.83 1018.08 1018.53 1018.63 1019.19 1019.55 1019.77 1019.92 1020.19 1020.24 1020.35 1020.48 1020.58 1020.45 1020.42 1020.45 1020.53 1020.58 1020.69 1020.89 1021.04 1021.21 1021.36 1021.49 1021.50 1021.47 1021.69 1021.81 1021.96 1021.98 1022.09 1022.09
1013.86 1013.25 1013.51 1014.65 1016.10 1016.88 1017.11 1016.60 1016.31 1016.03 1015.82 1015.84 1016.03 1016.60 1017.27 1018.13 1018.24 1018.43 1018.64 1018.72 1018.53 1019.07 1019.57 1019.87 1020.08 1020.35 1020.47 1020.50 1020.56 1020.62 1020.72 1020.63 1020.64 1020.77 1020.68 1020.83 1021.06 1021.19 1021.39 1021.53 1021.73 1021.75 1021.77 1022.01 1022.14 1022.24 1022.34 1022.47 1022.37
1013.74 1013.85 1014.88 1015.79 1016.93 1017.06 1016.83 1016.68 1016.27 1016.10 1015.87 1015.83 1016.29 1016.71 1017.42 1018.06 1018.23 1018.32 1018.00 1018.44 1018.73 1019.16 1019.58 1020.01 1020.22 1020.40 1020.62 1020.64 1020.66 1020.71 1020.80 1020.90 1020.97 1021.02 1020.95 1021.02 1021.19 1021.31 1021.58 1021.78 1021.89 1021.91 1022.04 1022.25 1022.36 1022.48 1022.68 1022.71 1022.60
1014.42 1014.72 1015.93 1016.44 1017.01 1016.44 1016.35 1016.39 1016.20 1016.12 1016.00 1015.98 1016.38 1017.30 1017.67 1017.65 1017.75 1017.91 1018.24 1018.48 1018.82 1019.25 1019.62 1020.04 1020.27 1020.42 1020.54 1020.70 1020.80 1020.82 1020.80 1020.90 1021.02 1021.13 1021.20 1021.13 1021.29 1021.44 1021.65 1021.91 1022.08 1022.22 1022.21 1022.44 1022.64 1022.77 1022.84 1022.90 1022.82
1015.32 1016.23 1017.04 1017.21 1016.96 1016.24 1015.95 1015.97 1015.97 1016.01 1016.12 1016.21 1016.39 1017.37 1017.80 1017.78 1017.58 1017.88 1018.30 1018.61 1018.94 1019.48 1019.73 1020.02 1020.30 1020.47 1020.60 1020.61 1020.81 1020.94 1020.94 1021.00 1021.12 1021.21 1021.34 1021.30 1021.43 1021.60 1021.74 1022.01 1022.25 1022.33 1022.46 1022.68 1022.86 1022.93 1022.97 1023.03 1022.97
1016.42 1017.30 1017.98 1017.94 1017.10 1016.26 1015.85 1015.67 1015.73 1015.92 1016.11 1016.22 1016.60 1017.44 1018.04 1017.94 1017.96 1018.25 1018.54 1018.79 1018.91 1019.50 1019.79 1020.05 1020.30 1020.56 1020.71 1020.84 1020.74 1020.86 1020.95 1021.12 1021.14 1021.27 1021.40 1021.42 1021.47 1021.67 1021.84 1022.06 1022.36 1022.56 1022.80 1022.93 1023.04 1023.12 1023.12 1023.10 1023.10
1017.15 1017.96 1018.43 1018.01 1017.31 1016.36 1015.65 1015.31 1015.58 1015.79 1016.03 1016.03 1016.41 1017.55 1018.39 1018.42 1018.11 1018.28 1018.67 1018.71 1019.07 1019.46 1019.74 1019.99 1020.33 1020.55 1020.75 1020.76 1020.99 1020.93 1020.90 1021.08 1021.25 1021.29 1021.44 1021.62 1021.62 1021.72 1021.90 1022.15 1022.29 1022.53 1022.78 1022.94 1023.09 1023.20 1023.22 1023.19 1023.19
1017.28 1018.07 1018.29 1017.87 1017.49 1016.36 1015.64 1015.40 1015.38 1015.51 1015.95 1015.76 1016.20 1017.45 1018.01 1018.00 1018.15 1018.52 1018.72 1019.05 1019.23 1019.30 1019.77 1019.89 1020.11 1020.36 1020.74 1020.88 1020.93 1021.15 1021.19 1021.22 1021.33 1021.48 1021.63 1021.76 1021.80 1021.80 1022.07 1022.25 1022.30 1022.41 1022.60 1022.84 1023.03 1023.15 1023.19 1023.19 1023.22
1017.21 1018.22 1018.35 1017.71 1017.26 1016.62 1015.89 1015.79 1015.55 1015.56 1015.86 1016.18 1016.63 1017.10 1017.11 1017.32 1018.16 1018.78 1019.11 1019.18 1019.34 1019.41 1019.65 1019.88 1020.07 1020.12 1020.40 1020.81 1021.03 1021.14 1021.26 1021.39 1021.53 1021.64 1021.83 1021.98 1022.05 1022.03 1022.09 1022.31 1022.41 1022.60 1022.77 1022.94 1023.08 1023.18 1023.25 1023.27 1023.26
1017.76 1018.38 1017.91 1017.23 1016.96 1016.72 1016.42 1016.26 1016.07 1015.97 1016.24 1016.76 1017.17 1017.52 1017.44 1017.68 1018.21 1018.78 1019.02 1019.03 1019.01 1019.28 1019.49 1019.44 1019.86 1020.00 1020.16 1020.38 1020.78 1021.17 1021.35 1021.46 1021.58 1021.71 1021.91 1022.09 1022.28 1022.36 1022.39 1022.47 1022.47 1022.60 1022.81 1022.96 1023.11 1023.24 1023.33 1023.39 1023.44
1017.85 1017.88 1017.58 1017.15 1016.78 1016.61 1016.64 1016.47 1016.48 1016.36 1016.46 1016.59 1017.18 1017.77 1018.16 1018.22 1018.44 1018.62 1018.88 1018.88 1018.62 1018.66 1019.06 1019.26 1019.35 1019.66 1019.88 1020.01 1020.47 1020.67 1020.97 1021.33 1021.54 1021.68 1021.78 1021.96 1022.15 1022.39 1022.51 1022.66 1022.64 1022.70 1022.80 1022.96 1022.99 1023.18 1023.39 1023.43 1023.47
1018.06 1017.49 1017.41 1017.02 1016.84 1016.71 1016.72 1016.69 1016.69 1016.68 1016.41 1016.40 1016.57 1017.12 1017.99 1018.34 1018.42 1018.32 1018.48 1018.61 1018.57 1018.43 1018.50 1018.67 1019.03 1019.30 1019.58 1019.76 1019.98 1020.35 1020.52 1020.81 1021.17 1021.31 1021.48 1021.69 1021.98 1022.27 1022.37 1022.51 1022.53 1022.63 1022.68 1022.92 1023.07 1023.17 1023.21 1023.31 1023.22
1018.16 1017.67 1017.16 1016.99 1016.91 1016.90 1016.68 1016.74 1016.87 1016.58 1016.22 1016.38 1016.40 1017.09 1017.64 1017.95 1018.11 1018.21 1018.13 1018.10 1018.29 1018.38 1018.14 1018.19 1018.44 1018.91 1019.14 1019.49 1019.75 1020.06 1020.24 1020.38 1020.61 1020.96 1021.07 1021.31 1021.51 1021.74 1022.04 1022.13 1022.21 1022.33 1022.46 1022.71 1022.97 1023.01 1023.01 1023.03 1022.97
1018.30 1017.91 1017.48 1017.19 1017.13 1016.99 1016.97 1016.78 1016.92 1016.46 1016.18 1016.49 1016.87 1017.12 1017.30 1017.55 1017.37 1017.79 1017.96 1017.76 1017.67 1017.95 1017.90 1017.86 1017.94 1018.14 1018.62 1019.00 1019.27 1019.52 1019.83 1019.90 1020.21 1020.51 1020.67 1020.96 1021.18 1021.43 1021.65 1021.80 1021.98 1022.11 1022.19 1022.34 1022.58 1022.68 1022.66 1022.60 1022.51
1018.44 1018.39 1017.94 1017.60 1017.34 1017.08 1016.98 1017.03 1016.83 1016.42 1016.41 1016.73 1016.92 1016.94 1016.97 1016.90 1017.10 1016.89 1016.57 1016.85 1016.73 1016.77 1017.38 1017.46 1017.52 1017.71 1017.82 1018.17 1018.58 1018.86 1019.13 1019.39 1019.55 1019.83 1020.08 1020.27 1020.58 1020.84 1021.09 1021.49 1021.62 1021.71 1021.86 1021.99 1022.24 1022.31 1022.32 1022.40 1022.17
1018.86 1018.85 1018.70 1018.03 1017.57 1017.21 1017.50 1016.69 1016.97 1016.63 1016.72 1016.67 1016.54 1016.72 1016.54 1016.31 1016.16 1015.89 1015.88 1015.91 1015.96 1015.96 1016.22 1016.79 1016.95 1017.21 1017.35 1017.55 1017.88 1018.13 1018.42 1018.67 1018.86 1019.14 1019.39 1019.67 1019.95 1020.20 1020.59 1020.89 1021.00 1021.12 1021.49 1021.71 1021.92 1022.06 1022.26 1022.15 1022.02
1019.26 1019.02 1019.22 1018.77 1018.27 1018.20 1018.24 1017.37 1017.10 1016.90 1016.58 1016.54 1016.40 1016.22 1016.14 1015.85 1015.55 1015.08 1014.87 1014.84 1014.84 1014.87 1015.04 1015.60 1016.18 1016.31 1016.65 1017.02 1017.28 1017.52 1017.69 1017.97 1018.11 1018.42 1018.70 1018.88 1019.17 1019.52 1019.86 1020.16 1020.33 1020.65 1020.99 1021.33 1021.40 1021.58 1021.69 1021.84 1021.75
1019.50 1019.63 1019.48 1019.34 1019.43 1019.26 1019.05 1018.12 1017.89 1017.52 1017.29 1017.10 1016.59 1015.92 1015.74 1015.32 1014.61 1014.10 1014.07 1014.08 1014.19 1014.26 1014.30 1014.44 1015.09 1015.41 1015.73 1016.27 1016.67 1016.94 1017.32 1017.25 1017.42 1017.57 1017.84 1018.15 1018.45 1018.84 1019.24 1019.53 1019.75 1020.08 1020.44 1020.76 1021.01 1021.11 1021.20 1021.30 1021.32
1019.69 1019.97 1019.96 1019.99 1020.13 1019.93 1019.44 1018.75 1018.06 1017.60 1017.14 1016.58 1016.04 1015.45 1015.08 1014.62 1013.64 1013.12 1013.03 1013.10 1013.24 1013.61 1013.84 1013.68 1014.02 1014.44 1015.07 1015.34 1015.97 1016.31 1016.17 1016.57 1016.74 1016.82 1017.03 1017.28 1017.62 1018.03 1018.43 1018.72 1019.13 1019.44 1019.80 1019.98 1020.23 1020.54 1020.73 1020.88 1020.98
1020.24 1020.29 1020.10 1020.60 1020.50 1020.48 1019.90 1018.63 1017.84 1016.98 1016.03 1015.74 1015.28 1014.83 1014.41 1013.84 1013.34 1012.95 1012.71 1012.45 1012.49 1012.25 1012.63 1013.17 1013.15 1013.60 1014.21 1014.59 1014.66 1015.16 1015.65 1015.83 1015.96 1016.12 1016.15 1016.31 1016.63 1017.02 1017.48 1017.76 1018.20 1018.53 1019.04 1019.31 1019.49 1019.81 1020.15 1020.18 1020.47
1020.01 1020.02 1020.13 1020.85 1020.82 1020.51 1020.23 1018.20 1017.09 1015.52 1014.79 1014.51 1013.88 1013.66 1013.02 1012.55 1012.39 1012.19 1011.97 1011.82 1011.61 1011.57 1011.79 1012.09 1012.33 1012.53 1013.02 1013.52 1014.27 1014.67 1015.05 1015.40 1015.61 1015.37 1015.33 1015.39 1015.71 1016.08 1016.37 1016.60 1017.10 1017.69 1018.07 1018.34 1018.60 1018.85 1019.16 1019.47 1019.82
1019.56 1019.58 1020.17 1020.63 1021.24 1020.70 1020.57 1018.36 1016.22 1015.45 1014.38 1013.75 1012.64 1011.94 1011.43 1011.38 1011.30 1011.24 1011.19 1011.14 1011.39 1011.23 1011.03 1011.30 1011.67 1011.83 1011.91 1012.45 1013.28 1013.71 1013.75 1014.01 1014.13 1014.42 1014.71 1014.89 1015.01 1015.06 1015.38 1015.64 1015.91 1016.43 1017.03 1017.29 1017.44 1017.88 1018.13 1018.68 1019.06
1018.70 1019.17 1019.94 1020.59 1020.72 1020.79 1020.41 1019.99 1015.94 1015.51 1014.44 1013.59 1012.14 1011.62 1011.17 1011.10 1011.11 1010.96 1011.06 1010.94 1010.84 1010.95 1010.85 1010.87 1011.07 1011.30 1011.52 1011.91 1012.10 1012.73 1013.13 1013.03 1013.17 1013.63 1013.77 1014.01 1014.26 1014.32 1014.68 1014.93 1015.16 1015.50 1015.90 1016.23 1016.60 1016.96 1017.26 1017.47 1017.87
1018.77 1019.42 1020.00 1020.41 1020.67 1019.97 1019.27 1019.65 1016.39 1015.00 1013.47 1012.72 1012.23 1011.54 1011.23 1011.40 1011.27 1011.37 1011.19 1011.18 1011.16 1010.66 1010.55 1010.80 1011.15 1011.16 1011.38 1011.74 1011.90 1012.00 1012.18 1012.44 1012.82 1013.04 1013.18 1013.21 1013.52 1013.70 1013.85 1014.10 1014.37 1014.53 1014.90 1015.22 1015.44 1015.78 1016.10 1016.37 1016.59
1018.29 1019.40 1019.68 1019.58 1019.70 1018.41 1018.21 1018.97 1015.57 1013.35 1013.07 1012.37 1012.45 1012.49 1012.23 1011.99 1012.07 1011.87 1011.57 1011.42 1011.48 1011.21 1011.03 1011.08 1011.45 1011.47 1011.41 1011.47 1011.48 1011.54 1011.64 1011.87 1011.97 1012.11 1012.35 1012.55 1012.74 1012.86 1012.79 1013.24 1013.46 1013.67 1013.82 1014.11 1014.53 1014.84 1015.02 1015.24 1015.48
1017.23 1017.88 1018.17 1018.63 1018.43 1018.48 1018.11 1017.30 1013.94 1012.25 1012.04 1012.12 1012.03 1012.82 1012.80 1012.52 1012.68 1012.43 1012.03 1011.92 1012.06 1011.99 1011.80 1011.81 1011.66 1011.57 1011.57 1011.56 1011.55 1011.35 1011.22 1011.15 1011.24 1011.27 1011.35 1011.54 1011.65 1011.70 1011.83 1012.08 1012.33 1012.49 1012.77 1013.14 1013.53 1013.76 1013.86 1014.01 1014.09
1016.39 1016.03 1017.36 1018.63 1018.98 1018.42 1017.45 1015.47 1013.59 1012.41 1012.16 1012.22 1012.29 1013.32 1013.19 1012.94 1012.62 1012.85 1012.47 1012.52 1012.41 1012.38 1012.26 1012.29 1012.23 1012.01 1011.88 1011.77 1011.53 1011.30 1010.97 1010.75 1010.47 1010.45 1010.43 1010.55 1010.62 1010.70 1010.88 1011.02 1011.21 1011.43 1011.72 1012.01 1012.32 1012.49 1012.50 1012.72 1012.84
1015.98 1016.33 1017.48 1017.77 1017.47 1017.45 1016.68 1015.23 1012.57 1012.10 1012.22 1012.71 1013.30 1013.31 1013.18 1013.15 1013.09 1013.07 1013.20 1012.99 1013.34 1012.83 1012.77 1012.64 1012.75 1012.87 1012.62 1012.11 1011.72 1011.28 1010.94 1010.66 1010.36 1010.07 1009.90 1009.74 1009.70 1009.77 1009.92 1010.05 1010.12 1010.30 1010.56 1010.81 1011.11 1011.22 1011.24 1011.34 1011.31
1015.95 1016.27 1016.42 1016.86 1017.46 1016.47 1015.86 1013.88 1012.19 1011.62 1011.92 1012.54 1013.08 1013.09 1013.09 1013.35 1013.39 1013.65 1013.92 1014.16 1014.25 1013.95 1013.18 1013.38 1013.31 1013.32 1013.15 1012.63 1012.04 1011.56 1010.94 1010.59 1010.44 1010.10 1009.67 1009.33 1009.00 1008.89 1008.92 1009.02 1009.09 1009.15 1009.21 1009.42 1009.67 1009.81 1010.05 1010.20 1010.27
1016.47 1016.81 1017.39 1015.84 1016.82 1016.53 1015.45 1013.01 1011.97 1011.55 1011.95 1012.23 1012.90 1013.23 1013.36 1013.46 1013.73 1014.30 1014.77 1014.99 1014.99 1014.81 1014.54 1014.29 1014.08 1014.00 1013.87 1013.28 1012.66 1012.10 1011.40 1010.86 1010.42 1010.13 1009.64 1009.18 1008.77 1008.40 1008.19 1008.15 1008.08 1008.03 1008.05 1008.15 1008.22 1008.47 1008.71 1008.89 1009.02
Wind_Speed
10 11 2 5 6 6 2 2 1 2 2 1 1 5 7 3 2 3 1 9 15 11 7 9 13 13 14 13 12 11 12 13 13 10 13 15 12 14 16 14 12 12 14 13 13 13 13 12 9
8 6 5 3 6 4 3 2 3 1 3 4 7 3 5 1 0 5 5 11 14 12 8 9 12 13 14 12 11 11 11 12 14 13 11 14 11 15 14 15 11 12 13 12 12 12 11 8 8
8 2 4 5 3 3 4 3 6 2 1 1 3 4 4 4 1 7 6 12 13 11 9 9 12 14 13 12 11 10 12 12 11 13 9 14 12 16 15 14 11 10 11 10 11 11 9 8 8
6 6 5 5 1 2 5 6 5 4 1 3 3 5 2 3 7 5 13 13 12 10 9 11 13 14 14 12 12 9 7 15 12 14 11 10 13 14 14 14 12 11 9 11 10 9 7 8 8
5 4 5 3 3 1 1 5 6 5 3 2 3 4 3 1 3 8 10 10 13 9 9 10 12 13 13 13 12 10 9 9 14 11 12 10 14 15 14 14 10 10 11 9 8 8 6 8 8
5 3 4 2 4 1 2 7 6 4 4 2 4 5 3 1 6 7 9 10 11 11 10 9 10 10 11 11 12 11 11 12 10 12 11 9 9 13 11 13 12 9 10 8 7 6 5 7 8
4 4 2 2 3 2 4 5 6 6 5 4 6 4 1 2 5 7 8 9 10 10 10 8 7 8 9 10 8 10 10 12 10 11 11 9 11 12 10 10 10 14 10 9 7 5 4 4 5
5 4 1 2 1 5 2 2 3 5 4 0 4 4 5 7 8 7 7 7 9 10 8 10 8 7 6 6 9 8 8 10 10 10 11 8 7 10 10 10 7 11 12 9 8 6 4 1 2
3 4 2 2 4 6 3 1 3 0 5 2 3 4 3 12 8 7 5 6 7 7 9 8 9 8 7 6 6 8 8 8 8 7 9 7 4 5 7 7 10 9 8 8 7 6 5 2 3
4 3 7 1 2 2 5 3 4 2 3 1 3 4 4 12 8 9 7 8 7 9 8 10 9 9 8 7 7 5 5 4 5 5 6 4 4 4 3 4 9 9 9 7 7 6 5 3 2
3 5 5 3 3 2 3 5 4 1 2 5 6 6 6 5 8 9 8 7 10 10 9 10 10 10 10 8 6 4 4 3 4 6 6 5 4 4 3 2 2 3 6 3 4 3 3 4 3
1 6 3 2 1 1 1 2 7 1 5 0 6 12 8 11 13 13 12 9 7 8 11 12 11 10 10 7 7 7 6 5 5 6 7 5 3 4 4 3 4 4 3 5 4 3 4 5 6
3 4 3 4 2 4 2 5 4 7 10 6 2 12 14 11 11 8 9 7 7 9 10 11 12 10 10 9 7 6 7 6 7 6 7 6 5 6 5 5 4 4 4 4 4 4 4 5 5
2 4 6 3 4 3 4 5 5 6 4 4 5 10 11 13 15 7 8 11 11 8 10 9 10 12 11 10 9 8 7 7 7 6 7 8 6 5 6 6 5 4 4 4 5 5 5 5 5
4 4 5 3 3 4 4 7 8 9 5 9 8 9 10 14 9 16 16 16 15 12 8 10 11 11 13 14 10 8 8 8 8 8 10 10 9 8 9 6 5 6 5 6 4 5 4 4 4
2 1 3 4 5 6 4 12 6 9 6 10 11 9 9 13 16 15 14 15 15 13 15 11 11 12 13 12 10 8 8 8 8 8 8 12 11 9 8 6 6 6 5 5 4 4 4 5 5
3 10 6 5 3 3 4 7 5 8 9 10 10 9 9 12 10 13 15 17 16 17 16 16 13 15 13 12 10 10 10 9 8 7 8 11 12 11 9 7 6 6 5 5 6 5 4 4 4
9 5 4 6 2 2 5 10 8 7 8 10 10 9 8 11 15 13 15 15 14 15 16 15 13 16 14 10 9 8 7 9 8 9 9 10 10 11 9 7 7 6 6 6 4 6 5 4 5
3 4 6 1 1 3 4 10 12 8 10 11 13 9 9 10 12 11 11 15 14 12 14 17 15 16 12 11 9 9 11 9 8 9 11 12 11 12 11 9 7 7 8 9 9 6 8 7 3
6 6 9 3 1 1 4 16 16 17 17 16 15 13 11 8 9 10 9 10 14 19 17 15 17 15 13 10 11 10 8 8 9 8 11 13 14 13 12 12 10 10 8 8 9 10 5 6 6
12 14 7 4 1 3 4 18 16 21 14 14 15 15 16 17 17 16 12 12 14 15 16 17 17 17 16 16 9 6 2 2 4 8 10 11 14 14 15 14 12 10 10 10 11 11 12 9 4
15 9 4 7 3 9 5 12 11 6 16 12 17 18 20 21 17 18 17 9 9 12 13 13 14 16 15 16 13 16 13 13 12 12 10 10 13 15 15 15 14 13 10 13 11 10 11 10 9
14 8 10 13 13 2 5 7 12 5 7 14 14 14 16 15 14 13 8 7 5 6 8 9 12 13 14 14 17 13 14 12 10 8 12 12 11 14 14 14 14 14 11 13 13 11 12 11 11
7 5 4 5 9 12 19 10 12 9 8 4 6 9 3 1 3 5 5 4 2 3 2 4 7 8 8 10 15 16 17 15 10 10 9 10 9 9 13 13 14 13 14 14 13 14 14 13 12
10 8 4 7 9 14 9 11 18 6 10 6 4 3 5 6 6 5 8 7 7 8 7 5 2 6 5 7 11 15 16 15 15 13 10 11 9 9 12 13 14 13 15 15 13 13 14 13 14
17 12 5 7 5 2 5 10 11 14 9 9 8 4 3 7 4 6 8 7 7 7 7 7 6 5 4 4 8 7 13 11 11 13 11 9 11 11 13 13 15 17 16 14 14 12 12 14 14
10 13 8 3 1 3 6 8 9 10 2 6 11 5 5 5 6 7 7 7 7 8 8 8 8 7 7 6 5 7 8 11 13 14 13 11 12 11 13 13 15 17 16 16 15 13 16 15 15
6 8 7 6 5 4 6 8 10 5 8 8 8 8 6 4 5 5 6 7 8 7 7 9 9 8 8 8 6 5 6 7 9 11 13 13 13 14 14 13 15 16 16 16 17 15 17 17 14
5 2 7 1 4 6 3 8 7 9 9 13 10 9 8 6 4 4 5 8 7 7 9 8 10 10 13 13 11 8 7 6 6 7 10 11 13 14 13 15 16 16 17 18 17 18 18 18 17
3 4 5 5 6 5 1 7 5 8 7 9 8 7 5 4 5 7 8 8 11 12 11 10 10 12 13 14 13 12 10 8 7 7 9 9 10 12 13 13 16 16 17 17 18 18 16 18 17
Wind_Direction
316 311 46 37 55 61 28 58 112 90 56 312 11 101 121 50 108 199 182 154 135 146 147 134 128 132 131 129 128 130 129 127 118 128 118 115 112 115 110 110 107 108 105 100 94 91 88 86 74
314 330 37 76 81 59 308 339 98 329 172 148 98 97 52 94 328 120 97 156 141 141 140 137 136 139 137 132 130 138 134 129 129 133 130 118 120 128 118 113 116 115 109 104 99 94 97 85 60
322 29 67 79 100 140 170 188 156 161 40 109 92 63 118 166 310 168 147 148 140 139 138 143 143 145 145 145 142 141 142 134 133 130 144 130 123 130 123 117 124 117 118 109 100 99 90 80 65
359 4 31 76 6 256 168 188 181 141 21 47 118 72 67 222 156 179 151 146 138 142 142 149 151 152 150 144 139 134 148 144 141 139 154 133 136 134 127 126 129 122 125 119 106 103 93 79 73
31 55 37 36 302 217 165 182 176 143 155 178 140 184 126 330 208 123 140 150 137 143 148 152 155 156 157 153 148 147 138 140 139 149 157 148 133 132 128 131 135 140 124 118 121 108 89 75 74
28 85 44 351 312 254 257 193 166 127 175 203 84 117 196 155 137 130 135 144 144 148 153 155 157 158 160 162 159 155 164 144 143 156 150 170 146 137 133 142 149 139 131 131 124 109 88 76 79
97 81 206 250 282 272 231 164 139 159 154 241 150 119 117 208 199 132 142 138 147 155 154 153 158 164 170 165 168 163 156 149 152 152 161 175 171 144 134 163 163 154 148 147 145 136 113 84 75
106 90 326 296 286 272 295 11 111 134 195 260 127 179 221 201 192 136 142 157 161 154 165 158 161 163 176 176 169 173 168 161 160 166 156 173 197 173 150 173 158 146 149 163 166 163 157 138 59
75 65 218 263 358 294 338 357 345 101 107 56 18 148 257 144 151 140 154 178 165 158 166 166 172 173 171 176 182 175 176 173 173 168 166 173 183 197 174 168 184 152 157 175 179 183 183 228 320
98 136 211 228 173 321 328 1 331 135 107 63 357 355 104 138 158 173 187 193 169 179 179 177 180 183 176 179 168 180 182 179 175 176 176 168 180 193 183 187 198 165 170 184 191 188 190 220 276
174 203 200 232 182 162 333 329 314 293 232 201 210 185 174 159 174 186 207 208 191 183 183 187 185 187 181 182 177 179 175 177 183 188 185 189 178 197 201 201 198 170 189 197 198 204 196 221 235
200 252 201 246 206 222 233 279 326 280 246 167 246 177 173 183 193 194 202 211 197 189 192 187 193 185 189 186 183 188 183 183 190 195 194 182 186 197 200 192 196 193 194 202 207 208 213 225 238
202 259 263 182 239 257 239 250 227 270 270 308 204 162 191 195 206 212 212 213 201 211 204 192 187 192 191 187 191 191 198 191 194 200 204 195 195 192 195 207 199 202 193 199 206 215 213 226 227
323 285 284 298 272 245 227 251 150 261 263 298 159 201 197 205 206 197 212 216 217 212 211 209 192 190 188 195 192 191 198 193 192 201 207 202 200 199 199 203 205 209 200 201 201 212 217 225 215
271 297 301 238 224 247 186 275 218 248 279 281 250 235 215 216 192 210 210 212 210 215 209 212 207 193 188 197 193 193 199 195 197 203 207 207 199 199 199 207 202 212 205 208 209 227 225 236 231
223 186 238 267 202 245 168 256 261 255 244 253 265 233 233 226 213 217 213 214 212 207 209 208 210 201 198 199 197 201 198 200 203 199 202 208 208 199 198 202 209 204 203 207 201 209 226 225 221
206 242 210 268 4 316 188 283 301 267 256 262 261 257 232 245 231 227 216 214 208 209 204 209 202 207 197 202 203 207 204 207 207 202 203 205 208 204 202 209 211 196 204 204 208 214 196 207 226
220 226 222 201 320 13 292 285 305 299 306 281 272 269 263 238 243 231 221 219 215 211 208 206 203 207 200 192 203 206 210 214 211 209 206 203 207 205 203 211 207 198 204 211 204 210 208 204 209
121 211 218 359 79 340 283 288 288 283 286 287 287 265 258 260 251 237 217 219 213 210 208 209 201 206 197 199 195 208 213 213 217 217 214 204 206 204 206 215 205 200 211 214 211 210 215 231 209
213 219 230 274 289 246 293 284 286 283 270 258 254 263 261 259 268 259 241 214 206 211 207 208 210 201 203 208 208 213 211 219 222 214 216 209 205 202 207 212 210 206 211 210 208 210 218 229 181
217 219 198 223 350 234 307 283 274 265 257 256 245 236 244 245 251 252 252 227 222 213 206 209 209 204 203 207 204 203 190 188 203 221 221 214 209 207 208 207 211 209 210 219 217 212 213 226 205
230 187 198 244 212 257 143 283 270 257 259 253 254 244 240 248 251 247 247 245 216 222 216 216 214 212 206 198 202 208 212 216 222 230 232 223 215 214 212 214 207 209 209 221 217 214 216 215 222
240 149 184 220 223 182 193 258 276 290 273 270 269 260 249 255 251 250 247 260 263 246 228 223 222 218 213 202 203 205 216 224 223 224 227 221 215 217 216 213 211 213 213 219 220 214 211 213 221
141 104 163 184 217 234 236 215 271 237 219 292 291 329 245 7 69 91 84 74 90 46 93 210 217 215 209 211 213 212 218 223 221 225 226 226 223 215 219 215 219 219 220 219 218 219 217 216 217
166 147 209 209 201 231 188 193 237 273 274 210 232 340 66 71 79 97 76 55 30 29 30 27 328 258 249 222 220 221 223 227 225 223 224 226 222 222 224 213 217 222 223 224 221 219 221 217 221
195 193 192 222 195 183 127 216 247 227 249 248 180 173 151 92 71 58 56 43 23 14 20 18 22 356 338 262 252 238 233 232 228 231 229 227 227 227 225 217 222 224 226 224 223 222 223 221 222
192 209 147 173 8 109 201 266 294 260 200 99 119 141 119 83 71 50 37 29 16 9 1 359 352 349 349 331 295 274 258 244 239 236 231 229 227 231 228 219 219 224 223 224 221 224 228 226 226
224 163 169 209 201 207 239 253 227 190 187 140 140 157 144 146 82 57 25 20 355 20 10 11 5 342 327 326 319 293 282 271 261 253 245 235 232 231 227 221 219 222 223 222 223 226 231 230 227
202 245 209 136 187 206 194 250 230 200 164 156 169 166 160 140 120 61 32 19 16 19 34 22 14 360 357 349 331 320 314 300 283 268 265 252 241 236 230 227 226 224 223 223 225 226 230 231 231
80 213 228 229 193 242 144 265 346 171 144 134 144 140 151 165 86 53 43 34 30 25 18 18 15 15 3 349 345 337 324 321 311 295 283 276 263 251 241 232 232 231 230 227 225 225 225 229 229